Погода в Могутове

Россия / Оренбургская область     53°09′11″N   52°09′10″E
темп.,
°C
ветер,
м/с
пор.,
м/с
влажн.,
%
обл.,
%
осадки,
мм/ч
давл.,
гПа
погр.,
м
10 апреля, сб
сб1023:00+6вюв51289100 0.0 1022178
02:00+3всв3493100 0.0 102355
05:00+3в3591100 0.0 102477
08:00+3в389387 0.0 1025147
11:00+8вюв5878100 0.0 1025278
14:00+14юв71166100 0.0 1024617
17:00+16юв71564100 0.0 1024832
20:00+15юв71667100 0.0 1024477
11 апреля, вс
вс1123:00+12юв82081100 0.0 1025516
02:00+11ююв9207992 0.0 1025504
05:00+9ююв81979100 0.0 1027489
08:00+8ююв71778100 0.0 1028409
11:00+12ююв71461100 0.0 1029506
14:00+17ю6949100 0.0 1029763
17:00+17ююв4851100 0.0 1029831
20:00+14юв3464100 0.0 103152
12 апреля, пн
пн1223:00+11юв3470100 0.0 103259
02:00+9юв377997 0.0 1033110
05:00+7юв3786100 0.0 1033110
08:00+8вюв2486100 0.0 103496
11:00+13юв3466100 0.0 1034379
14:00+17юв3352100 0.0 1034804
17:00+18юв334690 0.0 10331017
20:00+14вюв226095 0.0 103318
13 апреля, вт
вт1323:00+11вюв336575 0.0 103433
02:00+9юв225954 0.0 103411
05:00+7вюв225742 0.0 103510
08:00+7вюв35625 0.0 1035102
11:00+12юв464328 0.0 1034478
14:00+16юв46305 0.0 1033851
17:00+17ююв45276 0.0 1032972
20:00+13юв22445 0.0 103119
14 апреля, ср
ср1423:00+10юв22505 0.0 103214
02:00+8ююв22545 0.0 103210
05:00+6юв225810 0.0 103110
08:00+7юв225839 0.0 103125
11:00+13юв344153 0.0 1030419
14:00+17юв33305 0.0 1028865
17:00+18юв22270 0.0 10271033
20:00+14юв22430 0.0 102611